Regional Weather Roundup
Issued by NWS Raleigh/Durham, NC

Home | Current Version | Previous Version | Text Only | Print | Product List | Glossary On
Versions: 1 2 3 4 5 6 7 8 9 10 11 12 13 14 15 16 17 18 19 20 21 22 23 24 25 26 27 28 29 30 31 32 33 34 35 36 37 38 39 40 41 42 43 44 45 46 47 48 49 50
000
ASUS42 KRAH 261110
RWRRAH
NORTH CAROLINA WEATHER ROUNDUP
NATIONAL WEATHER SERVICE RALEIGH NC
700 AM EDT TUE MAY 26 2015

NOTE: "FAIR" INDICATES FEW OR NO CLOUDS BELOW 12,000 FEET WITH NO
SIGNIFICANT WEATHER AND/OR OBSTRUCTIONS TO VISIBILITY.

NCZ001-053-055-056-065-067-261200-
WESTERN NORTH CAROLINA

CITY           SKY/WX    TMP DP  RH WIND       PRES   REMARKS
ASHEVILLE      CLOUDY    66  63  90 S6        30.32R
JEFFERSON      CLOUDY    62  62 100 CALM      30.34R FOG
MORGANTON      CLOUDY    68  65  90 CALM      30.34R
HICKORY        CLOUDY    68  64  87 CALM      30.29R
RUTHERFORDTON  CLOUDY    67  66  96 SE5       30.30R
MOUNT AIRY     CLOUDY    67  63  86 CALM      30.31R
BOONE          RAIN      63  62  97 CALM      30.36R
$$

NCZ021-022-025-041-071-084-088-261200-
CENTRAL NORTH CAROLINA

CITY           SKY/WX    TMP DP  RH WIND       PRES   REMARKS
CHARLOTTE      CLOUDY    68  64  87 S5        30.29R
GREENSBORO     PTCLDY    66  64  93 SW6       30.29R
WINSTON-SALEM  CLOUDY    68  64  87 CALM      30.30R
RALEIGH-DURHAM PTCLDY    67  64  90 SW7       30.30R
FORT BRAGG     NOT AVBL
FAYETTEVILLE   CLEAR     64  62  93 CALM      30.29R
BURLINGTON     CLEAR     63  61  93 CALM      30.29R FOG
LAURINBURG     PTCLDY    63  60  90 CALM      30.30R FOG
$$

NCZ011-015-027-028-043-044-047-080-103-261200-
NORTHEASTERN NORTH CAROLINA

CITY           SKY/WX    TMP DP  RH WIND       PRES   REMARKS
ROCKY MT-WILSO SUNNY     62  61  96 CALM      30.31R FOG
GREENVILLE     SUNNY     63  63 100 CALM      30.32R
WASHINGTON       N/A     65  63  93 CALM      30.32R
ELIZABETH CITY SUNNY     66  64  93 S3        30.32R
MANTEO         SUNNY     70  63  79 SW3       30.33R
CAPE HATTERAS  PTSUNNY   73  64  73 S10       30.32R
$$

NCZ078-087-090-091-093-098-101-261200-
SOUTHEASTERN NORTH CAROLINA

CITY           SKY/WX    TMP DP  RH WIND       PRES   REMARKS
LUMBERTON      PTCLDY    63  61  93 CALM      30.28R
GOLDSBORO      SUNNY     63  62  96 CALM      30.28R
KINSTON        SUNNY     63  61  94 CALM      30.32R
KENANSVILLE    SUNNY     58  57  96 CALM      30.31R
NEW BERN       CLOUDY    64  61  90 CALM      30.32R
CHERRY POINT   SUNNY     64  60  87 CALM      30.32R
BEAUFORT       MOSUNNY   74  66  76 S6        30.31R
JACKSONVILLE   MOSUNNY   66  62  87 CALM      30.30R
WILMINGTON     CLEAR     66  63  90 NE3       30.28R
$$



USA.gov is the U.S. government's official web portal to all federal, state and local government web resources and services.